EW7349 Weather Reports


time (UTC)temp
C
wind
direction
speed
KPH
gust
KPH
rain 1hr
cm
rain 24hr
cm
rain mn
cm
humidity
%
barometer
mb
20260902021912 27 57 0.0 0.0 0.00 0.00 0.00 83 1015.9
20260902021404 27 57 0.0 0.0 0.00 0.00 0.00 83 1015.9
20260902020905 27 57 0.0 0.0 0.00 0.00 0.00 83 1015.7
20260902020402 27 57 0.0 0.0 0.00 0.00 0.00 83 1015.7
20260902015901 27 57 0.0 0.0 0.00 0.00 0.00 82 1015.7
20260902015403 27 57 0.0 0.0 0.00 0.00 0.00 82 1015.7
20260902014900 27 57 0.0 0.0 0.00 0.00 0.00 82 1015.7
20260902014401 28 57 0.0 0.0 0.00 0.00 0.00 82 1015.6
20260902013859 28 57 0.0 0.0 0.00 0.00 0.00 81 1015.5
20260902013400 28 57 0.0 0.0 0.00 0.00 0.00 81 1015.5
20260902012857 28 57 0.0 0.0 0.00 0.00 0.00 81 1015.4
20260902012359 28 57 0.0 0.0 0.00 0.00 0.00 80 1015.2
20260902011900 28 57 0.0 0.0 0.00 0.00 0.00 80 1015.2
20260902011359 28 57 0.0 0.0 0.00 0.00 0.00 80 1015.1
20260902010858 28 57 0.0 0.0 0.00 0.00 0.00 80 1015.1
20260902010358 28 57 0.0 0.0 0.00 0.00 0.00 80 1015.0
20260902005859 28 57 0.0 0.0 0.00 0.00 0.00 80 1015.0
20260902005358 28 57 0.0 0.0 0.00 0.00 0.00 79 1015.0
20260902004853 29 57 0.0 0.0 0.00 0.00 0.00 79 1014.9
20260902004843 29 57 0.0 0.0 0.00 0.00 0.00 79 1014.8
20260902003852 29 57 0.0 1.6 0.00 0.00 0.00 79 1014.6
20260902003352 29 57 0.0 1.6 0.00 0.00 0.00 78 1014.5
20260902003113 30 181 0.0 0.0 0.00 0.00 0.00 78 1014.4
20260902002352 30 181 0.0 0.0 0.00 0.00 0.00 77 1014.3
20260902001851 30 181 0.0 0.0 0.00 0.00 0.00 77 1014.3
20260902001353 30 181 0.0 0.0 0.00 0.00 0.00 77 1014.3
20260902000854 30 181 0.0 0.0 0.00 0.00 0.00 76 1014.2
20260902000349 30 181 0.0 0.0 0.00 0.00 0.00 76 1014.3
20260901235848 30 181 0.0 0.0 0.00 0.00 0.00 76 1014.2
20260901235348 30 181 0.0 0.0 0.00 0.00 0.00 76 1014.2
20260901234849 30 181 0.0 0.0 0.00 0.00 0.00 76 1014.2
20260901234348 31 181 0.0 0.0 0.00 0.00 0.00 75 1014.3
20260901233849 31 181 0.0 0.0 0.00 0.00 0.00 75 1014.2
20260901233349 31 181 0.0 1.6 0.00 0.00 0.00 75 1014.3
20260901232850 31 181 0.0 1.6 0.00 0.00 0.00 75 1014.3
20260901232349 31 180 0.0 0.0 0.00 0.00 0.00 74 1014.3
20260901231842 31 180 0.0 0.0 0.00 0.00 0.00 74 1014.3
20260901231335 31 180 0.0 0.0 0.00 0.00 0.00 74 1014.4
20260901230829 31 180 0.0 0.0 0.00 0.00 0.00 73 1014.4
20260901230324 31 180 0.0 1.6 0.00 0.00 0.00 73 1014.4
20260901225818 31 180 0.0 1.6 0.00 0.00 0.00 73 1014.4
20260901225312 32 180 0.0 0.0 0.00 0.00 0.00 72 1014.4
20260901224812 32 180 0.0 0.0 0.00 0.00 0.00 72 1014.5
20260901224310 32 180 0.0 0.0 0.00 0.00 0.00 71 1014.6
20260901223809 32 180 0.0 1.6 0.00 0.00 0.00 71 1014.5
20260901223306 31 180 0.0 3.2 0.00 0.00 0.00 72 1014.6
20260901222804 31 180 0.0 3.2 0.00 0.00 0.00 73 1014.6
20260901222301 31 241 0.0 3.2 0.00 0.00 0.00 69 1014.7
20260901221803 32 213 0.0 3.2 0.00 0.00 0.00 72 1014.7
20260901221300 32 227 0.0 3.2 0.00 0.00 0.00 71 1014.7
20260901220758 31 204 0.0 3.2 0.00 0.00 0.00 71 1014.8
20260901220258 32 277 0.0 3.2 0.00 0.00 0.00 70 1014.9
20260901215757 32 213 0.0 1.6 0.00 0.00 0.00 69 1014.8
20260901215519 32 213 0.0 3.2 0.00 0.00 0.00 68 1014.8
20260901214755 32 246 0.0 3.2 0.00 0.00 0.00 64 1014.8
20260901214254 32 291 0.0 3.2 0.00 0.00 0.00 63 1014.9
20260901213754 32 254 0.0 3.2 0.00 0.00 0.00 67 1014.9
20260901213253 32 248 0.0 4.8 0.00 0.00 0.00 62 1014.9
20260901213016 33 177 0.0 4.8 0.00 0.00 0.00 64 1014.9
20260901212516 33 163 0.0 3.2 0.00 0.00 0.00 61 1014.8
20260901212018 33 324 1.6 4.8 0.00 0.00 0.00 59 1014.8
20260901211252 33 266 0.0 4.8 0.00 0.00 0.00 61 1014.7
20260901210745 33 192 1.6 4.8 0.00 0.00 0.00 62 1014.8
20260901210732 33 225 0.0 4.8 0.00 0.00 0.00 61 1014.7
20260901205734 33 243 0.0 4.8 0.00 0.00 0.00 61 1014.8
20260901205227 33 222 1.6 4.8 0.00 0.00 0.00 61 1014.8
20260901204722 33 272 0.0 3.2 0.00 0.00 0.00 58 1014.9
20260901204215 33 210 0.0 3.2 0.00 0.00 0.00 58 1014.9
20260901203709 34 273 0.0 6.4 0.00 0.00 0.00 56 1014.9
20260901203203 35 171 1.6 6.4 0.00 0.00 0.00 56 1015.0
20260901202657 34 316 1.6 6.4 0.00 0.00 0.00 54 1015.0
20260901202157 34 229 1.6 6.4 0.00 0.00 0.00 53 1015.1
20260901201646 35 36 1.6 8.0 0.00 0.00 0.00 54 1015.1
20260901201140 35 147 3.2 8.0 0.00 0.00 0.00 52 1015.1
20260901200634 35 296 3.2 16.1 0.00 0.00 0.00 54 1015.3
20260901200127 35 11 3.2 16.1 0.00 0.00 0.00 50 1015.3
20260901195623 36 302 1.6 9.7 0.00 0.00 0.00 48 1015.4
20260901195115 36 48 1.6 11.3 0.00 0.00 0.00 48 1015.4
20260901194610 35 298 3.2 12.9 0.00 0.00 0.00 50 1015.4
20260901194103 35 49 1.6 12.9 0.00 0.00 0.00 47 1015.5
20260901193822 36 310 1.6 12.9 0.00 0.00 0.00 49 1015.4
20260901193052 36 269 3.2 12.9 0.00 0.00 0.00 48 1015.5
20260901192546 36 265 1.6 9.7 0.00 0.00 0.00 47 1015.7
20260901192039 36 156 1.6 9.7 0.00 0.00 0.00 48 1015.8
20260901191533 36 224 3.2 12.9 0.00 0.00 0.00 49 1015.9
20260901191027 35 27 3.2 11.3 0.00 0.00 0.00 52 1016.0
20260901190521 35 119 3.2 11.3 0.00 0.00 0.00 49 1015.9
20260901190016 35 46 1.6 12.9 0.00 0.00 0.00 51 1016.1
20260901185510 35 74 3.2 12.9 0.00 0.00 0.00 50 1016.1
20260901185003 35 100 3.2 9.7 0.00 0.00 0.00 50 1016.1
20260901184457 36 78 1.6 9.7 0.00 0.00 0.00 50 1016.1
20260901183951 35 55 3.2 12.9 0.00 0.00 0.00 50 1016.1
20260901183708 35 5 3.2 12.9 0.00 0.00 0.00 49 1016.1
20260901182939 35 38 3.2 6.4 0.00 0.00 0.00 50 1016.1
20260901182432 35 100 1.6 6.4 0.00 0.00 0.00 48 1016.0
20260901181927 36 273 1.6 6.4 0.00 0.00 0.00 49 1016.0
20260901181422 35 332 1.6 6.4 0.00 0.00 0.00 52 1016.0
20260901180915 35 322 1.6 6.4 0.00 0.00 0.00 51 1016.1
20260901180409 35 123 3.2 12.9 0.00 0.00 0.00 50 1016.0
20260901175904 35 340 3.2 12.9 0.00 0.00 0.00 53 1016.1
20260901175403 35 66 1.6 11.3 0.00 0.00 0.00 54 1016.2
20260901174904 35 221 1.6 11.3 0.00 0.00 0.00 54 1016.1
20260901174847 35 198 1.6 8.0 0.00 0.00 0.00 54 1016.0
20260901173904 34 355 3.2 8.0 0.00 0.00 0.00 54 1016.1
20260901173402 34 212 3.2 8.0 0.00 0.00 0.00 57 1016.1
20260901172904 34 217 3.2 6.4 0.00 0.00 0.00 59 1016.2
20260901172403 33 74 1.6 4.8 0.00 0.00 0.00 58 1016.1
20260901171904 34 110 1.6 6.4 0.00 0.00 0.00 56 1016.3
20260901171403 34 203 1.6 6.4 0.00 0.00 0.00 55 1016.4
20260901170904 33 215 1.6 6.4 0.00 0.00 0.00 57 1016.4
20260901170405 34 243 1.6 8.0 0.00 0.00 0.00 60 1016.4
20260901165906 33 243 1.6 8.0 0.00 0.00 0.00 57 1016.5
20260901165402 33 227 1.6 11.3 0.00 0.00 0.00 60 1016.4
20260901164901 32 215 1.6 11.3 0.00 0.00 0.00 60 1016.4
20260901164404 32 261 1.6 4.8 0.00 0.00 0.00 61 1016.5
20260901163903 32 244 3.2 6.4 0.00 0.00 0.00 60 1016.5
20260901163357 33 247 3.2 8.0 0.00 0.00 0.00 60 1016.5
20260901162852 32 275 3.2 11.3 0.00 0.00 0.00 61 1016.5
20260901162345 32 250 3.2 11.3 0.00 0.00 0.00 60 1016.6
20260901161839 32 26 1.6 9.7 0.00 0.00 0.00 61 1016.8
20260901161559 32 123 1.6 4.8 0.00 0.00 0.00 61 1016.9
20260901160828 32 246 3.2 9.7 0.00 0.00 0.00 61 1017.0
20260901160322 32 41 3.2 9.7 0.00 0.00 0.00 63 1017.0
20260901155816 32 225 1.6 8.0 0.00 0.00 0.00 61 1016.9
20260901155309 32 210 1.6 8.0 0.00 0.00 0.00 63 1017.0
20260901154804 31 24 3.2 8.0 0.00 0.00 0.00 62 1016.9
20260901154527 31 94 1.6 8.0 0.00 0.00 0.00 68 1016.9
20260901154014 31 318 1.6 6.4 0.00 0.00 0.00 67 1017.0
20260901153246 31 240 1.6 6.4 0.00 0.00 0.00 68 1017.0
20260901152739 30 254 1.6 6.4 0.00 0.00 0.00 69 1017.1
20260901152234 30 251 1.6 6.4 0.00 0.00 0.00 69 1017.2
20260901151727 30 281 1.6 9.7 0.00 0.00 0.00 69 1017.3
20260901151227 30 38 0.0 9.7 0.00 0.00 0.00 67 1017.3
20260901150946 29 203 0.0 3.2 0.00 0.00 0.00 72 1017.3
20260901150225 29 259 1.6 4.8 0.00 0.00 0.00 72 1017.4
20260901145726 29 237 1.6 4.8 0.00 0.00 0.00 71 1017.4
20260901145224 29 18 1.6 4.8 0.00 0.00 0.00 71 1017.4
20260901144943 28 225 0.0 4.8 0.00 0.00 0.00 73 1017.4
20260901144223 28 324 0.0 1.6 0.00 0.00 0.00 78 1017.5
20260901143724 28 215 0.0 0.0 0.00 0.00 0.00 79 1017.5
20260901143222 28 209 0.0 0.0 0.00 0.00 0.00 79 1017.5
20260901142724 28 201 0.0 4.8 0.00 0.00 0.00 79 1017.5
20260901142223 28 281 0.0 4.8 0.00 0.00 0.00 77 1017.5
20260901141723 28 229 0.0 4.8 0.00 0.00 0.00 79 1017.5
20260901141223 27 244 0.0 4.8 0.00 0.00 0.00 79 1017.5
20260901140723 27 5 0.0 3.2 0.00 0.00 0.00 81 1017.5
20260901140223 26 248 0.0 3.2 0.00 0.00 0.00 83 1017.4
20260901135724 26 279 0.0 3.2 0.00 0.00 0.00 84 1017.4
20260901135713 26 251 1.6 6.4 0.00 0.00 0.00 85 1017.4
20260901134723 25 283 0.0 6.4 0.00 0.00 0.00 88 1017.5
20260901134223 25 225 0.0 3.2 0.00 0.00 0.00 88 1017.5
20260901133722 25 220 1.6 6.4 0.00 0.00 0.00 88 1017.5
20260901133222 25 207 1.6 6.4 0.00 0.00 0.00 89 1017.6
20260901132722 25 273 0.0 4.8 0.00 0.00 0.00 91 1017.6
20260901132224 24 347 0.0 3.2 0.00 0.00 0.00 93 1017.6
20260901131723 23 246 0.0 3.2 0.00 0.00 0.00 93 1017.6
20260901131223 23 246 0.0 4.8 0.00 0.00 0.00 94 1017.6
20260901130722 23 266 1.6 4.8 0.00 0.00 0.00 94 1017.7
20260901130221 23 284 0.0 4.8 0.00 0.00 0.00 94 1017.8
20260901125723 23 240 0.0 0.0 0.00 0.00 0.00 94 1017.9
20260901125214 23 252 0.0 0.0 0.00 0.00 0.00 94 1017.9
20260901124709 23 252 0.0 0.0 0.00 0.00 0.00 94 1017.9
20260901124203 23 252 0.0 0.0 0.00 0.00 0.00 94 1017.8
20260901123656 23 252 0.0 0.0 0.00 0.00 0.00 94 1017.8
20260901123419 23 252 0.0 1.6 0.00 0.00 0.00 94 1017.8
20260901122916 23 252 0.0 3.2 0.00 0.00 0.00 94 1017.7
20260901122153 23 252 0.0 3.2 0.00 0.00 0.00 94 1017.7
20260901121652 23 241 0.0 1.6 0.00 0.00 0.00 94 1017.6
20260901121150 23 241 0.0 1.6 0.00 0.00 0.00 94 1017.6
20260901120650 22 241 0.0 1.6 0.00 0.00 0.00 94 1017.7
20260901120151 22 241 0.0 1.6 0.00 0.00 0.00 94 1017.6
20260901115649 22 241 0.0 1.6 0.00 0.00 0.00 94 1017.6
20260901115149 22 241 0.0 3.2 0.00 0.00 0.00 94 1017.5
20260901114650 22 241 0.0 3.2 0.00 0.00 0.00 94 1017.5
20260901114146 22 241 0.0 1.6 0.00 0.00 0.00 94 1017.5
20260901113647 22 241 0.0 1.6 0.00 0.00 0.00 94 1017.5
20260901113623 22 241 0.0 1.6 0.00 0.00 0.00 94 1017.4
20260901112642 22 241 0.0 1.6 0.00 0.00 0.00 94 1017.4
20260901112401 22 241 0.0 0.0 0.00 0.00 0.00 94 1017.3
20260901111637 22 241 0.0 0.0 0.00 0.00 0.00 93 1017.3
20260901111137 22 241 0.0 0.0 0.00 0.00 0.00 93 1017.2
20260901110902 22 241 0.0 0.0 0.00 0.00 0.00 93 1017.2
20260901110403 22 241 0.0 0.0 0.00 0.00 0.00 93 1017.2
20260901105635 22 241 0.0 0.0 0.00 0.00 0.00 93 1017.2
20260901105129 22 241 0.0 0.0 0.00 0.00 0.00 93 1017.2
20260901104624 22 241 0.0 0.0 0.00 0.00 0.00 93 1017.2
20260901104117 22 241 0.0 0.0 0.00 0.00 0.00 93 1017.1
20260901103611 22 241 0.0 0.0 0.00 0.00 0.00 93 1017.1
20260901103106 22 241 0.0 0.0 0.00 0.00 0.00 93 1017.0
20260901102807 22 241 0.0 0.0 0.00 0.00 0.00 93 1017.1
20260901102653 22 241 0.0 0.0 0.00 0.00 0.00 93 1017.0
20260901101550 22 241 0.0 0.0 0.00 0.00 0.00 93 1017.1
20260901101041 22 241 0.0 0.0 0.00 0.00 0.00 93 1017.1
20260901100536 22 241 0.0 0.0 0.00 0.00 0.00 93 1017.1
20260901100029 22 241 0.0 0.0 0.00 0.00 0.00 93 1017.0
20260901095745 22 241 0.0 0.0 0.00 0.00 0.00 93 1017.1
20260901095017 22 241 0.0 0.0 0.00 0.00 0.00 93 1017.0
20260901094737 22 241 0.0 0.0 0.00 0.00 0.00 93 1017.0
20260901094005 22 241 0.0 0.0 0.00 0.00 0.00 93 1017.0
20260901093459 22 241 0.0 0.0 0.00 0.00 0.00 93 1017.0
20260901092953 22 241 0.0 0.0 0.00 0.00 0.00 93 1017.1
20260901092448 22 241 0.0 0.0 0.00 0.00 0.00 93 1017.1
20260901091941 22 241 0.0 0.0 0.00 0.00 0.00 93 1017.1
20260901091435 23 241 0.0 0.0 0.00 0.00 0.00 93 1017.2
20260901091152 23 241 0.0 0.0 0.00 0.00 0.00 93 1017.3
20260901090647 23 241 0.0 0.0 0.00 0.00 0.00 93 1017.2
20260901085917 23 241 0.0 0.0 0.00 0.00 0.00 93 1017.2
20260901085411 23 241 0.0 0.0 0.00 0.00 0.00 93 1017.1
20260901085359 23 241 0.0 0.0 0.00 0.00 0.00 93 1017.1
20260901084400 23 241 0.0 1.6 0.00 0.00 0.00 93 1017.1
20260901083853 23 241 0.0 1.6 0.00 0.00 0.00 93 1017.1
20260901083347 23 241 0.0 1.6 0.00 0.00 0.00 93 1017.1
20260901083113 23 241 0.0 1.6 0.00 0.00 0.00 93 1017.1
20260901082335 23 241 0.0 0.0 0.00 0.00 0.00 93 1017.1
20260901081829 23 241 0.0 0.0 0.00 0.00 0.00 93 1017.1
20260901081323 23 241 0.0 0.0 0.00 0.00 0.00 93 1017.1
20260901080823 23 241 0.0 1.6 0.00 0.00 0.00 93 1017.1
20260901080320 23 241 0.0 1.6 0.00 0.00 0.00 93 1017.2
20260901080259 23 277 0.0 0.0 0.00 0.00 0.00 93 1017.2
20260901075316 23 277 0.0 0.0 0.00 0.00 0.00 93 1017.1
20260901074814 23 277 0.0 1.6 0.00 0.00 0.00 93 1017.2
20260901074536 23 277 0.0 1.6 0.00 0.00 0.00 93 1017.2
20260901073814 23 277 0.0 0.0 0.00 0.00 0.00 93 1017.2
20260901073313 23 277 0.0 0.0 0.00 0.00 0.00 93 1017.3
20260901072812 23 277 0.0 0.0 0.00 0.00 0.00 93 1017.3
20260901072749 23 277 0.0 0.0 0.00 0.00 0.00 93 1017.4
20260901072246 23 277 0.0 0.0 0.00 0.00 0.00 93 1017.5
20260901071305 23 277 0.0 0.0 0.00 0.00 0.00 93 1017.6
20260901071249 23 277 0.0 0.0 0.00 0.00 0.00 93 1017.6
20260901070301 23 277 0.0 0.0 0.00 0.00 0.00 93 1017.6
20260901065801 23 277 0.0 0.0 0.00 0.00 0.00 93 1017.5
20260901065533 23 277 0.0 0.0 0.00 0.00 0.00 93 1017.6
20260901064801 23 277 0.0 0.0 0.00 0.00 0.00 93 1017.7
20260901064301 23 277 0.0 1.6 0.00 0.00 0.00 93 1017.8
20260901063801 23 277 0.0 1.6 0.00 0.00 0.00 93 1017.7
20260901063529 23 231 0.0 1.6 0.00 0.00 0.00 93 1017.8
20260901062801 23 231 0.0 0.0 0.00 0.00 0.00 93 1017.7
20260901062301 23 231 0.0 0.0 0.00 0.00 0.00 93 1017.6
20260901061759 23 231 0.0 0.0 0.00 0.00 0.00 92 1017.6
20260901061518 23 231 0.0 0.0 0.00 0.00 0.00 92 1017.6
20260901060801 23 231 0.0 0.0 0.00 0.00 0.00 92 1017.7
20260901060259 23 231 0.0 0.0 0.00 0.00 0.00 92 1017.8
20260901055757 23 231 0.0 0.0 0.00 0.00 0.00 92 1017.8
20260901055256 23 231 0.0 0.0 0.00 0.00 0.00 92 1017.8
20260901054757 23 231 0.0 1.6 0.00 0.00 0.00 92 1017.9
20260901054254 23 231 0.0 1.6 0.00 0.00 0.00 92 1017.9
20260901053753 23 231 0.0 3.2 0.00 0.00 0.00 92 1018.1
20260901053254 23 231 0.0 3.2 0.00 0.00 0.00 92 1018.2
20260901052752 23 34 0.0 0.0 0.00 0.00 0.00 92 1018.1
20260901052252 24 34 0.0 0.0 0.00 0.00 0.00 92 1018.1
20260901051752 24 34 0.0 0.0 0.00 0.00 0.00 92 1018.2
20260901051250 24 34 0.0 0.0 0.00 0.00 0.00 92 1018.2
20260901051012 24 34 0.0 0.0 0.00 0.00 0.00 92 1018.2
20260901050250 24 34 0.0 0.0 0.00 0.00 0.00 91 1018.3
20260901045751 24 34 0.0 0.0 0.00 0.00 0.00 91 1018.4
20260901045250 24 34 0.0 0.0 0.00 0.00 0.00 91 1018.4
20260901044751 24 34 0.0 0.0 0.00 0.00 0.00 91 1018.4
20260901044728 24 34 0.0 0.0 0.00 0.00 0.00 91 1018.5
20260901044013 24 34 0.0 0.0 0.00 0.00 0.00 91 1018.6
20260901043512 24 34 0.0 0.0 0.00 0.00 0.00 91 1018.7
20260901042752 24 34 0.0 0.0 0.00 0.00 0.00 91 1018.7
20260901042250 24 34 0.0 0.0 0.00 0.00 0.00 91 1018.6
20260901041752 24 34 0.0 0.0 0.00 0.00 0.00 91 1018.5
20260901041251 24 34 0.0 0.0 0.00 0.00 0.00 91 1018.6
20260901040750 24 34 0.0 0.0 0.00 0.00 0.00 90 1018.6
20260901040250 24 34 0.0 0.0 0.00 0.00 0.00 90 1018.6
20260901035751 24 34 0.0 0.0 0.00 0.00 0.00 90 1018.6
20260901035249 24 34 0.0 0.0 0.00 0.00 0.00 90 1018.6
20260901034746 24 34 0.0 0.0 0.00 0.00 0.00 90 1018.6
20260901034502 24 34 0.0 0.0 0.00 0.00 0.00 90 1018.5
20260901033745 24 34 0.0 0.0 0.00 0.00 0.00 89 1018.6
20260901033238 24 34 0.0 0.0 0.00 0.00 0.00 89 1018.6
20260901032732 24 34 0.0 0.0 0.00 0.00 0.00 89 1018.5
20260901032227 24 34 0.0 0.0 0.00 0.00 0.00 89 1018.5
20260901031721 25 34 0.0 0.0 0.00 0.00 0.00 89 1018.5
20260901031215 25 34 0.0 1.6 0.00 0.00 0.00 89 1018.6
20260901030936 25 34 0.0 1.6 0.00 0.00 0.00 89 1018.5
20260901030207 25 34 0.0 0.0 0.00 0.00 0.00 88 1018.5
20260901025708 25 34 0.0 0.0 0.00 0.00 0.00 88 1018.4
20260901025645 25 34 0.0 0.0 0.00 0.00 0.00 88 1018.4
20260901024709 25 34 0.0 0.0 0.00 0.00 0.00 88 1018.4
20260901024208 25 34 0.0 0.0 0.00 0.00 0.00 88 1018.4
20260901023710 25 34 0.0 0.0 0.00 0.00 0.00 88 1018.5
20260901023208 25 34 0.0 0.0 0.00 0.00 0.00 88 1018.5
20260901022707 25 34 0.0 0.0 0.00 0.00 0.00 88 1018.4
20260901022209 25 34 0.0 0.0 0.00 0.00 0.00 88 1018.4